Capitol Logistics 1154


LFPG
Charles de Gaulle
Paris, FR
EBLG
Liège Airport
Liege, BE

Activity Log

Date Flight Route Aircraft Duration
10/31/2019 CPX754 Not Available B738 0h 50m

Route Details

Aircraft Information
Primary: Boeing 737-800BCF
Backup: Not Available
Route Data
Distance: 149nm
Sched. Duration: 0h 50m
Avg. Duration: 0h 50m (-0m)
Times Flown: 1
Recm'd Route: Not Available
Planned Altitude: 14,000ft
Origin Wx: LFPG 080530Z 05003KT 020V090 CAVOK 22/13 Q1018 NOSIG
Dest. Wx: EBLG 080520Z 15006G16KT 120V240 CAVOK 23/13 Q1020 NOSIG
Notes:

Financial History
Total Freight: 32,208lbs
Average Load: 32,208lbs/flt
Fuel Used: 2,555lbs
Avg. Fuel Used: 2,555lbs/flt
Fuel Expense: $2,427
Avg. Fuel Expense: $2,427
Avg. Fuel Cost: $0.95/lbs
Total Gross Income: $64,416
Pilot Pay: $229
Total Expenses: $7,009
Total Revenue: $54,764
Average Revenue: $64,416.00